www.pogodaiklimat.ru

АРХИВ ПОГОДЫ в Краснодаре

Время (UTC), дата Ветер
(напр.,м/с)
 
Видим.   Явления Облачность Т
(С)
Тd
(С)
f
(%)
Тe
(С)
Тes
(С)
Комфортность P
(гПа)
Po
(гПа)
Тmin
(С)
Tmax
(С)
R
(мм)
S
(см)
12 28.04 Ю 2 10 км 1/0
[Cu med, cong]
+24.8 +2.9 24 +24 +35 комфорт 1017.2 1013.7
15 28.04 В 2 10 км 4/4 1000 м
[Cu med, cong]
+23.8 +2.8 25 +23 +24 комфорт 1016.1 1012.6 +25.4
18 28.04 штиль 0 10 км ясно +19.4 +7.5 46 +20 +20 тепло 1016.1 1012.5
21 28.04 штиль 0 10 км ясно +15.4 +8.8 65 +15 +15 тепло 1015.0 1011.4
00 29.04 В 2 10 км ясно +13.6 +9.7 77 +13 +13 тепло 1013.2 1009.6
03 29.04 В 2 10 км 9/4 1000 м
[Cu med, cong Ci fib]
+12.6 +9.6 82 +12 +12 по сезону 1012.4 1008.8 +12.4
06 29.04 СВ 1 10 км 10/4 1000 м
[Cb cap Ac As]
+16.2 +9.9 66 +17 +19 тепло 1012.2 1008.6
09 29.04 штиль 0 10 км 9/5 1000 м
[Cb cap Ac trans]
+20.1 +7.9 45 +21 +27 комфорт 1011.5 1008.0
12 29.04 СЗ 1 10 км 9/6 1000 м
[Cb cap Ac trans]
+22.6 +10.3 46 +24 +27 комфорт 1010.0 1006.5
15 29.04 С 1 10 км 10/4 1000 м
[Cb cap Ac trans Ci fib]
+22.7 +10.4 46 +25 +25 комфорт 1008.7 1005.2 +24.0
18 29.04 С 2 10 км 8/5 1000 м
[Cb cap Ac trans]
+19.0 +8.3 50 +20 +20 тепло 1009.1 1005.5
21 29.04 З 3 10 км 9/5 1000 м
[Cb cap Ac trans]
+18.2 +6.6 47 +18 +18 тепло 1009.4 1005.9
00 30.04 ЮЗ 1 10 км 4/4 1000 м
[Sc]
+15.0 +9.2 68 +16 +16 тепло 1011.0 1007.4
03 30.04 ЮЗ 1 10 км 3/3 1000 м
[Sc]
+13.4 +8.7 73 +14 +14 тепло 1011.7 1008.1 +13.2
06 30.04 Ю 2 10 км 3/0
[Ci fib]
+20.0 +10.2 53 +22 +30 комфорт 1012.5 1009.0
09 30.04 ЮЗ 2 10 км 6/6 1000 м
[Cb cap]
+24.0 +9.0 38 +25 +31 комфорт 1012.1 1008.6
12 30.04 З 3 10 км 8/4 1000 м
[Cu med, cong Ac trans Ci fib]
+24.2 +7.2 34 +24 +28 комфорт 1012.1 1008.6
15 30.04 ЮЗ 3 10 км гроза без осадков 8/8 1000 м
[Cb cap]
+21.4 +9.3 46 +23 +23 комфорт 1012.6 1009.1 +24.9
18 30.04 Ю 3 10 км зарница {гроза} 3/3 1000 м
[Cb cap]
+15.6 +9.6 67 +15 +15 тепло 1015.3 1011.7
21 30.04 ЮЗ 2 10 км 1/0
[Ac trans]
+13.1 +10.1 82 +12 +12 по сезону 1015.8 1012.1
00 1.05 Ю 3 10 км 5/0
[Ac trans]
+13.2 +9.8 80 +12 +12 тепло 1015.1 1011.5
03 1.05 Ю 2 10 км 8/8 600 м
[Sc]
+13.1 +9.8 80 +12 +12 по сезону 1015.2 1011.6 +12.9
06 1.05 Ю 3 10 км 8/8 1000 м
[Cb cap]
+15.7 +9.7 67 +15 +17 тепло 1015.7 1012.1
09 1.05 ЮЗ 5-10
{10}
10 км 8/8 1000 м
[Sc diur, vesp]
+17.8 +9.8 59 +17 +19 тепло 1015.6 1012.0
12 1.05 ЮЗ 4
{10}
10 км 5/5 1000 м
[Sc diur, vesp]
+19.1 +8.8 51 +20 +24 тепло 1014.7 1011.2
15 1.05 Ю 3 10 км 1/0
[Ac trans]
+17.3 +9.2 59 +17 +18 по сезону 1014.3 1010.7 +19.3
18 1.05 ЮЗ 1 10 км ясно +13.3 +8.8 74 +14 +14 по сезону 1015.4 1011.8
21 1.05 З 2 10 км ясно +12.0 +8.9 81 +11 +11 по сезону 1015.6 1012.0
00 2.05 Ю 1 10 км ясно +10.0 +8.4 90 +9 +9 по сезону 1015.6 1011.9
03 2.05 ЮЗ 1 4000 м дымка 10/10 600 м
[St]
+11.6 +9.3 86 +11 +11 по сезону 1016.2 1012.6 +9.5
06 2.05 ЮЗ 2 10 км 10/10 600 м
[St]
+12.5 +8.9 79 +12 +12 по сезону 1017.3 1013.7
09 2.05 ЮЗ 1 10 км 10/10 600 м
[St]
+14.8 +9.4 70 +15 +15 по сезону 1017.3 1013.7
12 2.05 З 2 10 км 8/8 1000 м
[Sc]
+18.5 +9.8 57 +19 +22 по сезону 1016.2 1012.7
15 2.05 СЗ 2 10 км 9/8 1000 м
[Cb cap Ac trans]
+18.3 +9.8 58 +19 +19 тепло 1015.2 1011.7 +20.5
18 2.05 штиль 0 10 км 5/5 600 м
[Sc]
+15.1 +9.7 70 +15 +15 по сезону 1016.1 1012.5
21 2.05 СЗ 2 10 км 9/9 600 м
[Sc]
+12.9 +8.9 77 +12 +12 по сезону 1015.8 1012.2
00 3.05 СЗ 1 10 км ясно +10.0 +7.8 86 +10 +10 по сезону 1014.5 1010.9
03 3.05 штиль 0 10 км 10/10 600 м
[St]
+10.6 +8.0 84 +10 +10 по сезону 1014.3 1010.6 +9.2
06 3.05 СВ 2 10 км 10/10 600 м
[St]
+13.1 +9.3 78 +12 +12 по сезону 1013.9 1010.3
09 3.05 В 1 10 км 8/0
[Ci fib]
+18.3 +10.9 62 +20 +37 опасность
простуды
1012.3 1008.8
12 3.05 СЗ 1 10 км 10/0
[Ac lent Cc]
+23.1 +8.0 38 +24 +32 комфорт 1010.8 1007.3
15 3.05 СЗ 2 10 км 10/6 1000 м
[Cb cap Ac und]
+21.4 +8.8 44 +23 +23 комфорт 1010.8 1007.3 +23.7
18 3.05 С 1 10 км 10/10 1000 м
[Sc]
+18.2 +11.3 64 +20 +20 тепло 1011.7 1008.2
21 3.05 СВ 1 10 км слабый ливневой дождь 10/10 1000 м
[Cb cap]
+16.4 +11.6 73 +17 +17 тепло 1011.5 1008.0
00 4.05 ЮЗ 1 10 км в посл. час ливневой дождь 10/8 1000 м
[Sc Ac und]
+15.3 +12.1 81 +16 +16 тепло 1011.1 1007.6
03 4.05 З 2 2000 м слабый дождь 10/0 600 м
[As op]
+13.1 +12.0 93 +12 +12 по сезону 1012.2 1008.6 +13.1 0.3
06 4.05 ЮЗ 1 4000 м в посл. час дождь 10/10 600 м
[Sc]
+13.7 +12.0 89 +14 +14 по сезону 1013.5 1009.9 +13.1
09 4.05 ЮЗ 1 4000 м слабый дождь 10/10 300 м
[Cb cap]
+14.4 +12.2 87 +15 +15 по сезону 1013.7 1010.1
12 4.05 Ю 1 4000 м слабый дождь 10/10 300 м
[Cb cap]
+13.9 +12.3 90 +14 +14 холодно 1014.1 1010.5
15 4.05 З 2 10 км {дождь} 10/10 300 м
[Frnb]
+14.4 +12.1 86 +14 +14 прохладно 1014.4 1010.8 +14.6 9
18 4.05 З 3 4000 м {ливн. осадки} 10/8 1000 м
[Sc Ac trans]
+13.2 +11.2 88 +12 +12 прохладно 1015.6 1012.0
21 4.05 ЮЗ 2 10 км 6/6 1000 м
[]
+11.5 +10.2 92 +10 +10 по сезону 1016.2 1012.6
00 5.05 З 2 10 км ясно +10.5 +8.1 85 +9 +9 по сезону 1016.2 1012.5
03 5.05 ЮЗ 1 10 км 3/0
[Ac trans]
+9.0 +7.3 89 +8 +9 прохладно 1016.9 1013.3 +8.6 0.8
06 5.05 З 2 10 км 3/3 1000 м
[Sc]
+15.3 +8.4 63 +15 +22 по сезону 1017.4 1013.8
09 5.05 СЗ 3 10 км 8/8 1000 м
[Cb cap]
+16.1 +5.9 51 +16 +19 по сезону 1017.4 1013.8

 

Местоположение метеостанции Краснодар (Краснодарский край, Россия): широта 45.03 долгота 39.15 высота над уровнем моря 34 м.

В архиве по умолчанию представлена погода в Краснодаре за последнюю неделю. Архивные данные за месяц целиком и за предыдущие месяцы, начиная с января 2011 года, Вы можете получить, выбрав интересующий диапазон дат из раскрывающегося списка и нажав кнопку "Ввод!".

Внимание! Время в таблицах - всемирное. Для получения местного времени необходимо прибавить поправку, которая в Краснодаре равна 3 ч.

Ветер - указаны скорость ветра в м/с - средняя за 10 мин, порывы в срок и между сроками (в фигурных скобках) и направление, откуда дует ветер: С - северный, СВ - северо-восточный, В - восточный, ЮВ - юго-восточный, Ю - южный, ЮЗ - юго-западный, З - западный, СЗ - северо-западный.
Видимость - горизонтальная дальность видимости в метрах или километрах. При видимости от 1 до 10 км при отсутствии осадков обычно наблюдается дымка, при ухудшении видимости до 1 км и менее - туман. В сухую погоду видимость может ухудшаться дымом, пылью или мглою.
Явления - указаны атмосферные явления, наблюдавшиеся в срок или в последний час перед сроком; фигурными скобками обозначены явления, наблюдавшиеся между сроками (за 1-3 часа до срока); квадратными скобками обозначены град или гололедные отложения с указанием их диаметра в мм.
Облачность - указаны через наклонную черту общая и нижняя облачность в баллах и высота нижней границы облаков в метрах; квадратными скобками обозначены формы облаков: Ci - перистые, Cs - перисто-слоистые, Cc - перисто-кучевые, Ac - высококучевые, As - высокослоистые, Sc - слоисто-кучевые, Ns - слоисто-дождевые, Cu - кучевые, Cb - кучево-дождевые. Подробнее классификацию облаков см. в Атласе облаков (PDF).
T - Температура воздуха - температура, измеренная на высоте 2 м над землей.
Td - Температура точки росы - температура, при понижении до которой содержащийся в воздухе водяной пар достигнет насыщения.
f - Относительная влажность воздуха - влажноcть воздуха, измеренная на высоте 2 м над землей.
Te - Эффективная температура - температура, которую ощущает одетый по сезону человек в тени. Характеристика душности погоды. При расчете учитывается влияние влажности воздуха и скорости ветра на теплоощущения человека.
Tes - Эффективная температура на солнце - температура, которую ощущает человек, с поправкой на солнечный нагрев. Характеристика знойности погоды. Зависит от высоты солнца над горизонтом, облачности и скорости ветра. Ночью, в пасмурную погоду, а также при ветре 12 м/с и более поправка равна нулю.
P - Атмосферное давление - приведенное к уровню моря атмосферное давление.
Po - Атмосферное давление - измеренное на уровне метеостанции атмосферное давление.
Tmin - Минимальная температура - минимум температуры воздуха на высоте 2 м над землей.
Tmax - Максимальная температура - максимум температуры воздуха на высоте 2 м над землей.
R - Количество осадков - Количество выпавших осадков, мм. При наведении курсора мыши на число - период времени, за который выпало указанное количество осадков.
S - Снежный покров - Высота снежного покрова, см. При наведении курсора мыши на число - состояние снежного покрова и степень покрытия местности в баллах.